Previsão horária em Dzhuno

Hoje, 24 Junho, Quinta-feira

Tempo Temperatura Precipitação Vento Pressão Humidade
00:00 +10°C° 1.4 mm 2 m/s 723 mmHg 98%
01:00 +10°C° 1.6 mm 2 m/s 722 mmHg 98%
02:00 +10°C° 1.6 mm 2 m/s 722 mmHg 98%
03:00 +10°C° 1.6 mm 2 m/s 722 mmHg 98%
04:00 +10°C° 1.5 mm 2 m/s 722 mmHg 98%
05:00 +10°C° 1.5 mm 2 m/s 722 mmHg 99%
06:00 +10°C° 1.5 mm 2 m/s 722 mmHg 99%
07:00 +10°C° 2.4 mm 2 m/s 723 mmHg 99%
08:00 +12°C° 2.4 mm 2 m/s 723 mmHg 99%
09:00 +12°C° 2.4 mm 2 m/s 723 mmHg 99%
10:00 +12°C° 2 mm 2 m/s 724 mmHg 99%
11:00 +12°C° 2 mm 2 m/s 724 mmHg 99%
12:00 +12°C° 2 mm 2 m/s 725 mmHg 99%
13:00 +12°C° 1.2 mm 2 m/s 725 mmHg 99%
14:00 +12°C° 1.2 mm 2 m/s 725 mmHg 99%
15:00 +12°C° 1.2 mm 2 m/s 726 mmHg 99%
16:00 +10°C° 0.5 mm 2 m/s 726 mmHg 99%
17:00 +10°C° 0.5 mm 2 m/s 726 mmHg 99%
18:00 +10°C° 0.5 mm 2 m/s 726 mmHg 99%
19:00 +11°C° 0.8 mm 1 m/s 726 mmHg 99%
20:00 +11°C° 0.8 mm 1 m/s 726 mmHg 99%
21:00 +11°C° 0.8 mm 1 m/s 727 mmHg 99%
22:00 +11°C° 0.5 mm 1 m/s 727 mmHg 99%
23:00 +11°C° 0.5 mm 1 m/s 727 mmHg 99%

Amanhã, 25 Junho, Sexta-feira

Tempo Temperatura Precipitação Vento Pressão Humidade
00:00 +11°C° 0.5 mm 1 m/s 728 mmHg 99%
01:00 +11°C° 0.2 mm 1 m/s 728 mmHg 99%
02:00 +11°C° 0.2 mm 1 m/s 728 mmHg 99%
03:00 +11°C° 0.2 mm 1 m/s 728 mmHg 99%
04:00 +11°C° 0.1 mm 1 m/s 729 mmHg 99%
05:00 +11°C° 0.1 mm 1 m/s 729 mmHg 99%
06:00 +11°C° 0.1 mm 1 m/s 729 mmHg 99%
07:00 +11°C° 0 mm 1 m/s 729 mmHg 99%
08:00 +11°C° 0 mm 1 m/s 730 mmHg 99%
09:00 +12°C° 0 mm 1 m/s 730 mmHg 98%
10:00 +12°C° 0 mm 1 m/s 730 mmHg 98%
11:00 +12°C° 0 mm 1 m/s 730 mmHg 98%
12:00 +12°C° 0 mm 1 m/s 730 mmHg 98%
13:00 +13°C° 0 mm 1 m/s 730 mmHg 97%
14:00 +13°C° 0 mm 1 m/s 730 mmHg 95%
15:00 +13°C° 0 mm 1 m/s 730 mmHg 94%
16:00 +13°C° 0 mm 1 m/s 730 mmHg 95%
17:00 +13°C° 0 mm 1 m/s 730 mmHg 95%
18:00 +13°C° 0 mm 1 m/s 730 mmHg 96%
19:00 +13°C° 0.1 mm 1 m/s 730 mmHg 97%
20:00 +13°C° 0.1 mm 1 m/s 730 mmHg 97%
21:00 +13°C° 0.1 mm 1 m/s 730 mmHg 98%
22:00 +13°C° 0 mm 1 m/s 730 mmHg 98%
23:00 +13°C° 0 mm 1 m/s 730 mmHg 98%

Depois de amanhã, 26 Junho, Sábado

Tempo Temperatura Precipitação Vento Pressão Humidade
00:00 +13°C° 0 mm 1 m/s 730 mmHg 98%
01:00 +13°C° 0 mm 1 m/s 730 mmHg 98%
02:00 +13°C° 0 mm 1 m/s 730 mmHg 98%
03:00 +13°C° 0 mm 2 m/s 730 mmHg 98%
04:00 +13°C° 0 mm 1 m/s 729 mmHg 97%
05:00 +14°C° 0 mm 1 m/s 729 mmHg 96%
06:00 +14°C° 0 mm 1 m/s 729 mmHg 95%
07:00 +15°C° 0 mm 1 m/s 729 mmHg 91%
08:00 +16°C° 0 mm 1 m/s 729 mmHg 88%
09:00 +18°C° 0 mm 1 m/s 729 mmHg 85%
10:00 +18°C° 0 mm 1 m/s 729 mmHg 84%
11:00 +19°C° 0 mm 1 m/s 729 mmHg 83%
12:00 +19°C° 0 mm 1 m/s 729 mmHg 83%
13:00 +19°C° 0 mm 1 m/s 729 mmHg 83%
14:00 +18°C° 0 mm 1 m/s 729 mmHg 84%
15:00 +18°C° 0 mm 1 m/s 729 mmHg 84%
16:00 +18°C° 0 mm 1 m/s 729 mmHg 84%
17:00 +18°C° 0 mm 1 m/s 729 mmHg 84%
18:00 +18°C° 0 mm 1 m/s 729 mmHg 84%
19:00 +16°C° 0 mm 2 m/s 729 mmHg 88%
20:00 +15°C° 0 mm 2 m/s 728 mmHg 92%
21:00 +14°C° 0 mm 2 m/s 728 mmHg 96%
22:00 +13°C° 0 mm 2 m/s 728 mmHg 95%
23:00 +13°C° 0 mm 2 m/s 728 mmHg 93%

27 Junho, Domingo

Tempo Temperatura Precipitação Vento Pressão Humidade
00:00 +13°C° 0 mm 2 m/s 728 mmHg 91%
01:00 +13°C° 0 mm 2 m/s 728 mmHg 91%
02:00 +12°C° 0 mm 2 m/s 728 mmHg 90%
03:00 +12°C° 0 mm 2 m/s 728 mmHg 90%
04:00 +13°C° 0 mm 2 m/s 728 mmHg 88%
05:00 +13°C° 0 mm 2 m/s 728 mmHg 87%
06:00 +14°C° 0 mm 2 m/s 728 mmHg 85%
07:00 +15°C° 0 mm 2 m/s 728 mmHg 81%
08:00 +16°C° 0 mm 2 m/s 728 mmHg 77%
09:00 +17°C° 0 mm 2 m/s 728 mmHg 72%
10:00 +17°C° 0 mm 2 m/s 728 mmHg 69%
11:00 +18°C° 0 mm 2 m/s 728 mmHg 65%
12:00 +19°C° 0 mm 2 m/s 728 mmHg 62%
13:00 +19°C° 0 mm 2 m/s 728 mmHg 61%
14:00 +19°C° 0 mm 2 m/s 728 mmHg 61%
15:00 +19°C° 0 mm 2 m/s 728 mmHg 60%
16:00 +19°C° 0 mm 2 m/s 728 mmHg 62%
17:00 +18°C° 0 mm 2 m/s 727 mmHg 65%
18:00 +18°C° 0 mm 2 m/s 727 mmHg 67%
19:00 +17°C° 0 mm 2 m/s 727 mmHg 70%
20:00 +15°C° 0 mm 2 m/s 727 mmHg 73%
21:00 +14°C° 0 mm 2 m/s 727 mmHg 77%
22:00 +14°C° 0 mm 2 m/s 727 mmHg 76%
23:00 +14°C° 0 mm 2 m/s 727 mmHg 75%

28 Junho, Segunda-feira

Tempo Temperatura Precipitação Vento Pressão Humidade
00:00 +13°C° 0 mm 2 m/s 726 mmHg 74%
01:00 +13°C° 0 mm 2 m/s 726 mmHg 75%
02:00 +13°C° 0 mm 2 m/s 726 mmHg 76%
03:00 +13°C° 0 mm 2 m/s 726 mmHg 76%
04:00 +13°C° 0 mm 2 m/s 726 mmHg 75%
05:00 +14°C° 0 mm 2 m/s 726 mmHg 74%
06:00 +15°C° 0 mm 2 m/s 726 mmHg 73%
07:00 +16°C° 0 mm 2 m/s 726 mmHg 71%
08:00 +17°C° 0 mm 2 m/s 726 mmHg 70%
09:00 +18°C° 0 mm 2 m/s 726 mmHg 68%
10:00 +18°C° 0 mm 2 m/s 726 mmHg 66%
11:00 +19°C° 0 mm 2 m/s 726 mmHg 65%
12:00 +19°C° 0 mm 2 m/s 725 mmHg 64%
13:00 +19°C° 0 mm 2 m/s 725 mmHg 64%
14:00 +19°C° 0 mm 2 m/s 725 mmHg 64%
15:00 +19°C° 0 mm 2 m/s 725 mmHg 64%
16:00 +19°C° 0 mm 2 m/s 725 mmHg 66%
17:00 +18°C° 0 mm 2 m/s 724 mmHg 69%
18:00 +18°C° 0 mm 2 m/s 724 mmHg 72%
19:00 +16°C° 0 mm 2 m/s 724 mmHg 77%
20:00 +15°C° 0 mm 2 m/s 723 mmHg 81%
21:00 +14°C° 0 mm 2 m/s 723 mmHg 86%
22:00 +13°C° 0 mm 2 m/s 723 mmHg 86%
23:00 +13°C° 0 mm 2 m/s 723 mmHg 87%

29 Junho, Terça-feira

Tempo Temperatura Precipitação Vento Pressão Humidade
00:00 +12°C° 0 mm 2 m/s 723 mmHg 87%
01:00 +12°C° 0 mm 2 m/s 722 mmHg 87%
02:00 +12°C° 0 mm 2 m/s 722 mmHg 88%
03:00 +12°C° 0 mm 2 m/s 722 mmHg 88%
04:00 +12°C° 0 mm 2 m/s 722 mmHg 86%
05:00 +13°C° 0 mm 2 m/s 721 mmHg 84%
06:00 +14°C° 0 mm 2 m/s 721 mmHg 83%
07:00 +15°C° 0 mm 2 m/s 721 mmHg 79%
08:00 +16°C° 0 mm 2 m/s 721 mmHg 75%
09:00 +17°C° 0 mm 2 m/s 720 mmHg 72%
10:00 +18°C° 0 mm 2 m/s 721 mmHg 71%
11:00 +18°C° 0 mm 2 m/s 721 mmHg 70%
12:00 +18°C° 0 mm 2 m/s 721 mmHg 69%
13:00 +19°C° 0 mm 2 m/s 721 mmHg 69%
14:00 +19°C° 0 mm 2 m/s 721 mmHg 70%
15:00 +19°C° 0 mm 2 m/s 721 mmHg 71%
16:00 +19°C° 0 mm 2 m/s 720 mmHg 72%
17:00 +18°C° 0 mm 2 m/s 720 mmHg 73%
18:00 +18°C° 0 mm 2 m/s 720 mmHg 74%
19:00 +17°C° 0 mm 2 m/s 720 mmHg 75%
20:00 +18°C° 0 mm 1 m/s 720 mmHg 76%
21:00 +16°C° 0 mm 1 m/s 720 mmHg 78%
22:00 +16°C° 0 mm 1 m/s 720 mmHg 79%
23:00 +15°C° 0 mm 1 m/s 720 mmHg 79%
Mostrar mais

Necessitamos do seu Consentimento

A Meteoprog e os seus Fornecedores de Serviços podem armazenar e aceder a dados pessoais como cookies, identificadores do dispositivo ou outras tecnologias semelhantes existentes no seu dispositivo e processar estes dados para personalizar conteúdos e anúncios, assim como funcionalidades nas redes sociais e análise de tráfego.

  • Armazenar e/ou aceder a informações no seu dispositivo

    Os cookies, identificadores do dispositivo ou outras informações podem ser armazenados ou acedidos no seu dispositivo, para os fins acima indicados.

  • Anúncios e conteúdos personalizados, medição de anúncios e conteúdos, dados sobre o público-alvo e desenvolvimento de produtos

    Os anúncios e os conteúdos podem ser personalizados com base num perfil. Podem ser adicionados dados adicionais para uma maior personalização dos anúncios e dos conteúdos. A eficácia dos anúncios e dos conteúdos pode ser medida. Podem ser obtidas informações sobre o público que visualizou os anúncios e os conteúdos. Estes dados podem ser usados para desenvolver ou melhorar sistemas, softwares ou a experiência do utilizador.

Ao clicar em "Eu concordo”, permitirá o uso de cookies, identificadores do dispositivo e web beacons mencionados ou outras tecnologias semelhantes. As configurações do navegador do seu dispositivo podem ser alteradas.

Para certos fins, podem ser invocados interesses legítimos ao invés de consentimento. Pode ler mais informação sobre este assunto na nossa Política de Privacidade e Cookies.